Preston, Minnesota, United States (55965)
Lat: 43.67N, Lon: 92.08W
Wx Zone: MNZ095
Local Info
Past Weather Observations for Saturday, August 30, 2014

NOTE: This archive is for the closest National Weather Service station to Preston. Information may differ from the station used for current weather conditions.

Click here for Long-term Archive

Time Weather Temperature Dewpoint Humidity Pressure Winds Precip Visibility
23:55
Overcast
Fog And Mist
61°F / 16°C 63°F / 17°C N/A 29.92 in
(1013 mb)
Calm - 3/4SM
23:36
Mostly Cloudy
Fog And Mist
63°F / 17°C 63°F / 17°C 100% 29.92 in
(1013 mb)
Calm - 1 1/4SM
23:15
Clear
63°F / 17°C 64°F / 18°C N/A 29.92 in
(1013 mb)
Calm - 10SM
22:56
Obscured
Fog And Mist
63°F / 17°C 63°F / 17°C 100% 29.92 in
(1013 mb)
Calm - 3/4SM
22:35
Clear
64°F / 18°C 64°F / 18°C 100% 29.92 in
(1013 mb)
Calm - 7SM
22:16
Clear
64°F / 18°C 64°F / 18°C 100% 29.92 in
(1013 mb)
Calm - 10SM
21:56
Clear
64°F / 18°C 64°F / 18°C 100% 29.92 in
(1013 mb)
Calm - 10SM
21:35
Clear
66°F / 19°C 66°F / 19°C 100% 29.92 in
(1013 mb)
Calm - 10SM
21:16
Clear
66°F / 19°C 66°F / 19°C 100% 29.92 in
(1013 mb)
Calm - 10SM
20:56
Partly Cloudy
66°F / 19°C 66°F / 19°C 100% 29.92 in
(1013 mb)
Calm - 10SM
20:36
Clear
66°F / 19°C 66°F / 19°C 100% 29.92 in
(1013 mb)
Calm - 10SM
20:16
Partly Cloudy
66°F / 19°C 66°F / 19°C 100% 29.92 in
(1013 mb)
Calm - 10SM
19:56
Partly Cloudy
66°F / 19°C 66°F / 19°C 100% 29.92 in
(1013 mb)
Calm - 10SM
19:35
Clear
66°F / 19°C 66°F / 19°C 100% 29.89 in
(1012 mb)
Calm - 10SM
19:16
Clear
68°F / 20°C 66°F / 19°C 94% 29.89 in
(1012 mb)
Calm - 10SM
18:55
Clear
68°F / 20°C 68°F / 20°C 100% 29.89 in
(1012 mb)
Calm - 10SM
18:36
Clear
68°F / 20°C 68°F / 20°C 100% 29.89 in
(1012 mb)
Calm - 10SM
18:16
Clear
70°F / 21°C 68°F / 20°C 94% 29.89 in
(1012 mb)
Calm - 10SM
17:55
Clear
72°F / 22°C 68°F / 20°C 88% 29.89 in
(1012 mb)
Calm - 10SM
17:36
Partly Cloudy
73°F / 23°C 68°F / 20°C 83% 29.89 in
(1012 mb)
Calm - 10SM
17:15
Mostly Cloudy
73°F / 23°C 68°F / 20°C 83% 29.89 in
(1012 mb)
Calm - 10SM
16:56
Partly Cloudy
72°F / 22°C 70°F / 21°C 94% 29.89 in
(1012 mb)
Calm - 10SM
16:35
Partly Cloudy
73°F / 23°C 68°F / 20°C 83% 29.89 in
(1012 mb)
Calm - 10SM
16:16
Mostly Cloudy
73°F / 23°C 70°F / 21°C 89% 29.86 in
(1011 mb)
Calm - 10SM
15:56
Partly Cloudy
75°F / 24°C 68°F / 20°C 78% 29.86 in
(1011 mb)
Calm - 10SM
15:35
Partly Cloudy
75°F / 24°C 68°F / 20°C 78% 29.86 in
(1011 mb)
Calm - 10SM
15:16
Partly Cloudy
75°F / 24°C 68°F / 20°C 78% 29.86 in
(1011 mb)
Calm - 10SM
14:55
Partly Cloudy
75°F / 24°C 68°F / 20°C 78% 29.89 in
(1012 mb)
Calm - 10SM
14:36
Clear
75°F / 24°C 68°F / 20°C 78% 29.89 in
(1012 mb)
Calm - 10SM
14:15
Clear
75°F / 24°C 68°F / 20°C 78% 29.89 in
(1012 mb)
NNW 3.5 mph
(NNW 6 kph)
- 10SM
13:56
Clear
75°F / 24°C 68°F / 20°C 78% 29.89 in
(1012 mb)
NW 3.5 mph
(NW 6 kph)
- 10SM
13:36
Partly Cloudy
75°F / 24°C 68°F / 20°C 78% 29.89 in
(1012 mb)
NW 3.5 mph
(NW 6 kph)
- 10SM
13:15
Mostly Cloudy
73°F / 23°C 68°F / 20°C 83% 29.89 in
(1012 mb)
Calm - 10SM
12:56
Mostly Cloudy
75°F / 24°C 68°F / 20°C 78% 29.89 in
(1012 mb)
NW 5.8 mph
(NW 9 kph)
- 10SM
12:36
Mostly Cloudy
73°F / 23°C 68°F / 20°C 83% 29.89 in
(1012 mb)
NW 4.6 mph
(NW 7 kph)
- 10SM
12:15
Partly Cloudy
73°F / 23°C 68°F / 20°C 83% 29.89 in
(1012 mb)
NW 4.6 mph
(NW 7 kph)
- 10SM
11:56
Mostly Cloudy
73°F / 23°C 68°F / 20°C 83% 29.89 in
(1012 mb)
NW 4.6 mph
(NW 7 kph)
- 10SM
11:36
Mostly Cloudy
72°F / 22°C 68°F / 20°C 88% 29.89 in
(1012 mb)
NW 3.5 mph
(NW 6 kph)
- 10SM
11:15
Overcast
72°F / 22°C 68°F / 20°C 88% 29.89 in
(1012 mb)
NW 4.6 mph
(NW 7 kph)
- 10SM
10:56
Mostly Cloudy
72°F / 22°C 68°F / 20°C 88% 29.86 in
(1011 mb)
NW 4.6 mph
(NW 7 kph)
- 10SM
10:35
Mostly Cloudy
72°F / 22°C 68°F / 20°C 88% 29.86 in
(1011 mb)
Calm - 10SM
10:16
Overcast
70°F / 21°C 68°F / 20°C 94% 29.86 in
(1011 mb)
NW 3.5 mph
(NW 6 kph)
- 10SM
09:55
Overcast
70°F / 21°C 68°F / 20°C 94% 29.86 in
(1011 mb)
NNW 3.5 mph
(NNW 6 kph)
- 10SM
09:36
Mostly Cloudy
70°F / 21°C 68°F / 20°C 94% 29.86 in
(1011 mb)
NNW 3.5 mph
(NNW 6 kph)
- 10SM
09:16
Mostly Cloudy
68°F / 20°C 68°F / 20°C 100% 29.83 in
(1010 mb)
Calm - 10SM
08:55
Overcast
68°F / 20°C 68°F / 20°C 100% 29.83 in
(1010 mb)
NNW 3.5 mph
(NNW 6 kph)
- 10SM
08:36
Overcast
68°F / 20°C 68°F / 20°C 100% 29.83 in
(1010 mb)
NW 3.5 mph
(NW 6 kph)
- 10SM
08:16
Overcast
66°F / 19°C 66°F / 19°C 100% 29.83 in
(1010 mb)
NW 3.5 mph
(NW 6 kph)
- 10SM
07:55
Overcast
66°F / 19°C 66°F / 19°C 100% 29.83 in
(1010 mb)
NW 3.5 mph
(NW 6 kph)
- 10SM
07:36
Overcast
66°F / 19°C 66°F / 19°C 100% 29.83 in
(1010 mb)
NW 3.5 mph
(NW 6 kph)
- 10SM
07:16
Overcast
64°F / 18°C 66°F / 19°C N/A 29.83 in
(1010 mb)
NW 3.5 mph
(NW 6 kph)
- 10SM
06:55
Overcast
64°F / 18°C 64°F / 18°C 100% 29.8 in
(1009 mb)
NW 3.5 mph
(NW 6 kph)
- 7SM
06:36
Overcast
64°F / 18°C 64°F / 18°C 100% 29.8 in
(1009 mb)
NW 3.5 mph
(NW 6 kph)
- 7SM
06:16
Overcast
64°F / 18°C 64°F / 18°C 100% 29.8 in
(1009 mb)
NW 3.5 mph
(NW 6 kph)
- 10SM
05:55
Overcast
64°F / 18°C 64°F / 18°C 100% 29.8 in
(1009 mb)
Calm 0.02 in
(0.51 mm)
10SM
05:36
Overcast
64°F / 18°C 64°F / 18°C 100% 29.77 in
(1008 mb)
Calm 0.02 in
(0.51 mm)
7SM
05:16
Overcast
Light Rain
64°F / 18°C 66°F / 19°C N/A 29.77 in
(1008 mb)
Calm 0.02 in
(0.51 mm)
4SM
04:55
Overcast
Fog And Mist
66°F / 19°C 66°F / 19°C 100% 29.77 in
(1008 mb)
Calm - 5SM
04:36
Overcast
66°F / 19°C 66°F / 19°C 100% 29.77 in
(1008 mb)
Calm - 7SM
04:16
Overcast
64°F / 18°C 66°F / 19°C N/A 29.77 in
(1008 mb)
Calm - 7SM
03:56
Overcast
Fog And Mist
64°F / 18°C 66°F / 19°C N/A 29.77 in
(1008 mb)
Calm - 4SM
03:36
Overcast
Fog And Mist
64°F / 18°C 66°F / 19°C N/A 29.77 in
(1008 mb)
Calm - 1 3/4SM
03:16
Overcast
Fog And Mist
66°F / 19°C 66°F / 19°C 100% 29.77 in
(1008 mb)
Calm - 1 3/4SM
02:56
Overcast
Fog And Mist
66°F / 19°C 66°F / 19°C 100% 29.77 in
(1008 mb)
Calm 0.02 in
(0.51 mm)
4SM
02:36
Overcast
Light Rain
66°F / 19°C 66°F / 19°C 100% 29.77 in
(1008 mb)
Calm 0.02 in
(0.51 mm)
5SM
02:15
Overcast
Light Rain
66°F / 19°C 66°F / 19°C 100% 29.77 in
(1008 mb)
Calm 0.01 in
(0.25 mm)
3SM
01:56
Overcast
Light Rain
66°F / 19°C 66°F / 19°C 100% 29.77 in
(1008 mb)
Calm - 5SM
01:35
Overcast
66°F / 19°C 66°F / 19°C 100% 29.77 in
(1008 mb)
Calm - 7SM
01:16
Overcast
Fog And Mist
66°F / 19°C 66°F / 19°C 100% 29.77 in
(1008 mb)
Calm - 5SM
00:55
Overcast
66°F / 19°C 66°F / 19°C 100% 29.77 in
(1008 mb)
Calm 0.01 in
(0.25 mm)
7SM
00:36
Overcast
Fog And Mist
64°F / 18°C 66°F / 19°C N/A 29.77 in
(1008 mb)
Calm 0.01 in
(0.25 mm)
4SM
00:15
Overcast
Light Rain
64°F / 18°C 66°F / 19°C N/A 29.77 in
(1008 mb)
Calm 0.01 in
(0.25 mm)
4SM
Time Weather Temperature Dewpoint Humidity Pressure Winds Precip Visibility


Weather for websites

WeatherForYou.com, LLC is not responsible for any damages or problems caused by this service. Current weather conditions are obtained from the closest station including government and personal stations which may have varying degrees of accuracy. Weather forecasts are derived from the NOAA NDFD. Like all things, this site belongs to Jesus Christ... He just trusts me to maintain it. If you have any questions or comments email webmaster@weatherforyou.com

Copyright © 2014, WeatherForYou.com LLC. All rights reserved.